Weather History for Boonville, MO

Change the Weather History Date:

Wednesday, January 9, 2013

  Actual Average Record
Temperature  
Mean Temperature 43 °F -  
Max Temperature 54 °F 32 °F 65 °F (1965)
Min Temperature 32 °F 15 °F -5 °F (1970)
Degree Days  
Heating Degree Days 22    
Moisture  
Dew Point 31 °F    
Average Humidity 66    
Maximum Humidity 99    
Minimum Humidity 37    
Precipitation  
Precipitation 0.00 in - - ()
Sea Level Pressure  
Sea Level Pressure 30.35 in    
Wind  
Wind Speed 3 mph (SE)    
Max Wind Speed 9 mph    
Max Gust Speed -    
Visibility 9 miles    
Events      
Averages and records for this station are not official NWS values.
T = Trace of Precipitation, MM = Missing Value Source: NWS Daily Summary

Daily Weather History Graph

Daily Weather History Graph

Search for Another Location

Airport:

Trip Planner

Search our weather history database for the weather conditions in past years. The results will help you decide how hot, cold, wet, or windy it might be!

Date:

Astronomy

Jan. 09, 2013 Rise Set
Actual Time 7:29 AM CST 5:06 PM CST
Civil Twilight 6:59 AM CST 5:36 PM CST
Nautical Twilight 6:26 AM CST 6:09 PM CST
Astronomical Twilight 5:54 AM CST 6:41 PM CST
Moon 5:09 AM CST (1/9) 3:09 PM CST (1/9)
Length of Visible Light 10h 36m
Length of Day
9h 37m
Waning Crescent, 6% of the Moon is Illuminated
Jan 9
Waning Crescent
Jan 11
New
Jan 18
First Quarter
Jan 26
Full
Feb 3
Last Quarter

Hourly Weather History & Observations

Time (CST) Temp. Windchill Dew Point Humidity Pressure Visibility Wind Dir Wind Speed Gust Speed Precip Events Conditions
12:15 AM 44.2 °F 41.8 °F 34.9 °F 70% 30.18 in 10.0 mi SW 4.6 mph - N/A   Scattered Clouds
12:35 AM 44.1 °F 42.5 °F 34.9 °F 70% 30.19 in 10.0 mi SW 3.5 mph - N/A   Scattered Clouds
12:55 AM 43.9 °F 42.3 °F 34.9 °F 71% 30.20 in 10.0 mi SW 3.5 mph - N/A   Scattered Clouds
1:15 AM 43.3 °F 40.7 °F 34.9 °F 72% 30.20 in 10.0 mi SW 4.6 mph - N/A   Clear
1:35 AM 43.0 °F 40.3 °F 34.9 °F 73% 30.20 in 10.0 mi SW 4.6 mph - N/A   Clear
1:55 AM 42.3 °F 39.4 °F 34.7 °F 75% 30.23 in 10.0 mi West 4.6 mph - N/A   Clear
2:15 AM 42.1 °F 39.2 °F 34.9 °F 76% 30.23 in 10.0 mi SW 4.6 mph - N/A   Clear
2:35 AM 41.7 °F 38.0 °F 34.7 °F 76% 30.24 in 10.0 mi WSW 5.8 mph - N/A   Clear
2:55 AM 41.0 °F 38.0 °F 34.3 °F 77% 30.24 in 10.0 mi West 4.6 mph - N/A   Clear
3:15 AM 41.0 °F 39.0 °F 34.5 °F 78% 30.25 in 10.0 mi West 3.5 mph - N/A   Clear
3:35 AM 40.6 °F 38.6 °F 34.5 °F 79% 30.26 in 10.0 mi WSW 3.5 mph - N/A   Clear
3:55 AM 40.3 °F 38.2 °F 34.3 °F 79% 30.27 in 10.0 mi WSW 3.5 mph - N/A   Clear
4:15 AM 40.1 °F 38.0 °F 34.2 °F 79% 30.27 in 10.0 mi West 3.5 mph - N/A   Clear
4:35 AM 39.4 °F - 34.0 °F 81% 30.27 in 10.0 mi Calm Calm - N/A   Clear
4:55 AM 39.2 °F - 34.0 °F 82% 30.28 in 10.0 mi Calm Calm - N/A   Clear
5:15 AM 37.2 °F - 33.4 °F 86% 30.29 in 10.0 mi Calm Calm - N/A   Clear
5:35 AM 35.8 °F - 33.8 °F 92% 30.29 in 10.0 mi Calm Calm - N/A   Clear
6:15 AM 34.5 °F - 33.6 °F 97% 30.31 in 7.0 mi Calm Calm - N/A   Clear
6:35 AM 34.0 °F - 33.4 °F 98% 30.31 in 7.0 mi Calm Calm - N/A   Clear
6:55 AM 33.8 °F - 33.3 °F 98% 30.32 in 7.0 mi Calm Calm - N/A   Clear
7:15 AM 33.3 °F - 32.7 °F 98% 30.33 in 7.0 mi Calm Calm - N/A   Clear
7:35 AM 33.1 °F 30.0 °F 32.9 °F 99% 30.34 in 5.0 mi SSW 3.5 mph - N/A   Clear
7:55 AM 32.7 °F - 32.4 °F 99% 30.36 in 5.0 mi Calm Calm - N/A   Clear
8:15 AM 32.2 °F - 31.8 °F 99% 30.37 in 4.0 mi Calm Calm - N/A   Clear
8:35 AM 33.8 °F 30.8 °F 33.4 °F 99% 30.38 in 7.0 mi SSW 3.5 mph - N/A   Clear
8:55 AM 35.6 °F 32.8 °F 34.3 °F 95% 30.39 in 10.0 mi SSW 3.5 mph - N/A   Clear
9:15 AM 37.4 °F 34.9 °F 34.9 °F 91% 30.40 in 10.0 mi SSW 3.5 mph - N/A   Clear
9:35 AM 38.5 °F - 35.1 °F 87% 30.41 in 10.0 mi Calm Calm - N/A   Clear
9:55 AM 40.3 °F - 34.9 °F 81% 30.41 in 10.0 mi Calm Calm - N/A   Clear
10:15 AM 42.6 °F - 34.3 °F 73% 30.41 in 10.0 mi Calm Calm - N/A   Clear
10:35 AM 45.5 °F - 34.0 °F 64% 30.40 in 10.0 mi Calm Calm - N/A   Clear
10:55 AM 46.8 °F - 35.2 °F 64% 30.40 in 10.0 mi Calm Calm - N/A   Clear
11:15 AM 46.9 °F - 34.5 °F 62% 30.39 in 10.0 mi Calm Calm - N/A   Clear
11:55 AM 48.4 °F - 31.8 °F 53% 30.39 in 10.0 mi WNW 3.5 mph - N/A   Clear
12:15 PM 48.6 °F - 32.0 °F 53% 30.39 in 10.0 mi Calm Calm - N/A   Clear
12:35 PM 49.5 °F - 32.2 °F 51% 30.38 in 10.0 mi SW 3.5 mph - N/A   Clear
12:55 PM 50.4 °F - 32.2 °F 50% 30.38 in 10.0 mi Calm Calm - N/A   Clear
1:15 PM 50.7 °F - 32.2 °F 49% 30.38 in 10.0 mi Calm Calm - N/A   Clear
1:35 PM 52.2 °F - 32.5 °F 47% 30.38 in 10.0 mi Calm Calm - N/A   Clear
1:55 PM 53.6 °F - 32.2 °F 44% 30.38 in 10.0 mi Calm Calm - N/A   Clear
2:15 PM 54.0 °F - 32.0 °F 43% 30.38 in 10.0 mi Calm Calm - N/A   Clear
2:35 PM 54.5 °F - 32.0 °F 42% 30.38 in 10.0 mi ENE 4.6 mph - N/A   Clear
2:55 PM 54.3 °F - 32.0 °F 43% 30.38 in 10.0 mi Calm Calm - N/A   Clear
3:15 PM 54.1 °F - 32.2 °F 43% 30.39 in 10.0 mi Calm Calm - N/A   Clear
3:35 PM 54.3 °F - 32.2 °F 43% 30.39 in 10.0 mi Calm Calm - N/A   Clear
3:55 PM 53.8 °F - 33.3 °F 46% 30.40 in 10.0 mi Calm Calm - N/A   Clear
4:15 PM 52.7 °F - 32.9 °F 47% 30.41 in 10.0 mi NNE 4.6 mph - N/A   Clear
4:35 PM 51.1 °F - 30.7 °F 46% 30.40 in 10.0 mi NE 4.6 mph - N/A   Clear
4:55 PM 49.8 °F - 27.1 °F 41% 30.40 in 10.0 mi NE 5.8 mph - N/A   Clear
5:15 PM 48.9 °F - 23.5 °F 37% 30.41 in 10.0 mi NE 5.8 mph - N/A   Clear
5:35 PM 47.5 °F - 24.8 °F 41% 30.41 in 10.0 mi ENE 6.9 mph - N/A   Clear
6:15 PM 46.6 °F - 25.3 °F 43% 30.41 in 10.0 mi ENE 4.6 mph - N/A   Clear
6:35 PM 45.9 °F 43.6 °F 25.5 °F 45% 30.42 in 10.0 mi East 4.6 mph - N/A   Clear
6:55 PM 45.0 °F 41.8 °F 25.7 °F 47% 30.42 in 10.0 mi East 5.8 mph - N/A   Clear
7:15 PM 44.2 °F 41.8 °F 25.5 °F 48% 30.42 in 10.0 mi East 4.6 mph - N/A   Clear
7:55 PM 42.6 °F 38.4 °F 26.8 °F 54% 30.41 in 2.5 mi East 6.9 mph - N/A   Haze
8:15 PM 41.5 °F 37.1 °F 27.5 °F 57% 30.41 in 1.5 mi East 6.9 mph - N/A   Haze
8:35 PM 41.4 °F 36.8 °F 27.3 °F 57% 30.42 in 3.0 mi East 6.9 mph - N/A   Haze
8:55 PM 41.0 °F 36.4 °F 27.1 °F 58% 30.43 in 2.5 mi ESE 6.9 mph - N/A   Haze
9:15 PM 40.6 °F 36.0 °F 27.0 °F 58% 30.42 in 2.0 mi East 6.9 mph - N/A   Haze
9:35 PM 40.8 °F 35.0 °F 27.0 °F 58% 30.42 in 10.0 mi East 9.2 mph - N/A   Clear
9:55 PM 41.4 °F 36.8 °F 26.6 °F 56% 30.41 in 10.0 mi East 6.9 mph - N/A   Clear
10:15 PM 40.8 °F 35.6 °F 26.4 °F 57% 30.41 in 10.0 mi East 8.1 mph - N/A   Clear
10:35 PM 40.8 °F 35.6 °F 25.7 °F 55% 30.41 in 10.0 mi East 8.1 mph - N/A   Clear
10:55 PM 40.8 °F 35.6 °F 25.5 °F 55% 30.40 in 10.0 mi East 8.1 mph - N/A   Clear
11:15 PM 40.5 °F 35.1 °F 25.5 °F 55% 30.40 in 10.0 mi East 8.1 mph - N/A   Clear
11:35 PM 40.1 °F 34.7 °F 26.1 °F 57% 30.39 in 10.0 mi East 8.1 mph - N/A   Clear
11:55 PM 40.5 °F 35.1 °F 26.2 °F 57% 30.39 in 10.0 mi East 8.1 mph - N/A   Clear